ROTAER D-AMDT 33/20 D-AMDT 40/20 Ver Mudanças

Brigadeiro Antônio Cabral ( SNDV ) / DIVINÓPOLIS, MG 20 10 55S/044 52 12W
AD PUB UTC-3 VFR L21 , L26 795 (2608)

17 - L12 - ( 1540x30 ASPH 20/F/B/X/T L14 , L15 ) - L12 - 35

SBBS (CINDACTA 1)
CMB- [1] PF SER - S1  
MET -

[2] [3]

RMK -

HORÁRIO DE FUNCIONAMENTO
  1. OPS noturna compulsório CTC através dos TEL: (37) 98827-5088 ou (37) 98407-4105 com antecedência MNM de 04 (quatro) horas
DADOS SOBRE OS PÁTIOS, PISTAS DE TAXI E PONTOS DE VERIFICAÇÃO
  1. ACFT com envergadura igual ou superior a 24,57m ingresso ou saída da RWY somente pela TWY de acesso à THR 17
OBSTÁCULO DE AERÓDROMO
  1. OBS OBST (morro) DIST 1946M da THR 34, AZM 121DEG
COMPL -
  • [1] Para INFO ADDN sobre AVGAS/JET ligar para (37)99816-5616.
  • [2] Usar código de localidade SNDV para acessar METAR/SPECI na REDEMET
  • [3] ERAA (Estação de Radiodifusão Automática de Aeródromo) FREQ 132.350MHZ
TEMP (0)

Suplementos AIP (0)

NOTAM (2)

NAV

F1261/20 N 01/09/2020 18:33
PJE SUBJ AUTH/COOR ACC BRASILIA ACONTECERA CENTRO COORD 202411S0445952W RAIO 3KM RTO

F0885/20 R F0505/20 23/06/2020 13:41
PJE ACONTECERA CENTRO AD 201055S0445212W
(DIVINOPOLIS, MG) RAIO 02KM RTO


Nascer/Por do Sol

08:46

20:56


METAR

241900Z AUTO 06005KT 020V100 CAVOK 28/14 Q1020=

TAF


Cartas (0)


Rotas Preferenciais (0)